Location: Unspecified
(0.0000°N, 0.0000°E)
Time: 07:54:40
(UTC+00:00)

Vanguard 2 - Visible Passes

Search period start: 20 August 2017 00:00
Search period end: 30 August 2017 00:00
Orbit: 555 x 2938 km, 32.9° (Epoch: 19 August)

Date Brightness Start Highest point End Pass type
(mag) Time Alt. Az. Time Alt. Az. Time Alt. Az.
20 Aug 11.3 00:58:45 24° NE 00:58:45 24° NE 01:03:03 10° NE visible
20 Aug 10.9 03:00:09 31° NNW 03:00:09 31° NNW 03:11:55 10° NNE visible
20 Aug 10.9 20:29:10 10° SSW 20:33:57 20° S 20:33:57 20° S visible
21 Aug 11.2 01:15:30 28° NNE 01:15:30 28° NNE 01:21:09 10° NE visible
21 Aug 11.1 03:16:53 24° NW 03:18:51 24° NNW 03:29:33 10° NNE visible
21 Aug 10.8 20:46:38 10° SSW 20:51:10 23° S 20:51:10 23° S visible
21 Aug11.923:30:48ENE23:30:48ENE22:52:36SWvisible
22 Aug 11.1 01:32:12 30° NNE 01:32:12 30° NNE 01:39:07 10° NE visible
22 Aug 11.3 03:33:36 17° NW 03:38:07 19° NNW 03:47:07 10° NNE visible
22 Aug 10.9 19:00:11 10° SSE 19:03:40 12° SSE 19:07:00 10° SE visible
22 Aug 10.8 21:04:16 10° SSW 21:08:27 25° SSW 21:08:27 25° SSW visible
23 Aug 11.1 01:48:52 30° N 01:48:52 30° N 01:56:59 10° NNE visible
23 Aug 11.5 03:50:15 11° NW 03:57:42 15° NNW 04:04:41 10° N visible
23 Aug 10.7 19:16:17 10° S 19:22:36 17° SE 19:24:20 16° SE visible
23 Aug 10.8 21:22:02 10° SW 21:25:48 25° SSW 21:25:48 25° SSW visible
24 Aug 11.8 00:04:06 12° NE 00:04:06 12° NE 00:04:55 10° NE visible
24 Aug 11.2 02:05:30 27° N 02:05:30 27° N 02:14:48 10° NNE visible
24 Aug 11.6 04:12:11 10° NW 04:17:32 12° NNW 04:22:20 10° N visible
24 Aug 10.5 19:33:17 10° SSW 19:41:16 24° SE 19:41:46 23° SE visible
24 Aug 10.9 21:39:58 10° SW 21:43:13 24° SW 21:43:13 24° SW visible
25 Aug 11.7 00:20:43 16° NE 00:20:43 16° NE 00:23:01 10° NE visible
25 Aug 11.3 02:22:06 23° NNW 02:22:06 23° NNW 02:32:38 10° NNE visible
25 Aug 11.6 04:34:26 10° NNW 04:37:31 11° N 04:40:23 10° N visible
25 Aug 10.2 19:50:37 10° SSW 19:59:15 32° SE 19:59:15 32° SE visible
25 Aug 11.0 21:58:06 10° SW 22:00:44 21° SW 22:00:44 21° SW visible
26 Aug 11.6 00:37:18 19° NNE 00:37:18 19° NNE 00:41:02 10° NE visible
26 Aug 11.4 02:38:41 19° NNW 02:40:30 19° NNW 02:50:33 10° NNE visible
26 Aug 11.6 04:54:54 10° NNW 04:57:32 11° N 04:59:59 10° N visible
26 Aug 9.9 20:08:10 10° SSW 20:16:52 43° SSE 20:16:52 43° SSE visible
26 Aug 11.2 22:16:29 10° WSW 22:18:20 17° WSW 22:18:20 17° WSW visible
27 Aug 11.5 00:53:53 21° NNE 00:53:53 21° NNE 00:58:59 10° NNE visible
27 Aug 11.6 02:55:16 14° NW 03:00:24 16° NNW 03:08:44 10° NNE visible
27 Aug 11.6 05:13:15 10° NNW 05:17:28 12° N 05:21:12 10° NNE visible
27 Aug 10.5 18:21:08 10° S 18:25:51 15° SE 18:31:43 10° ESE visible
27 Aug 9.7 20:25:55 10° SW 20:34:33 55° SSE 20:34:33 55° SSE visible
27 Aug 11.4 22:35:07 10° WSW 23:09:05 - NE 22:36:02 13° WSW visible
28 Aug 11.5 01:10:28 21° N 01:10:28 21° N 01:16:57 10° NNE visible
28 Aug 11.7 03:12:47 10° NW 03:20:30 14° N 03:27:26 10° NNE visible
28 Aug 11.5 05:31:02 10° NNW 05:37:14 14° N 05:42:21 10° NE visible
28 Aug 10.2 18:37:48 10° S 18:44:15 22° SE 18:50:52 14° ESE visible
28 Aug 9.6 20:43:52 10° SW 20:52:21 65° SSW 20:52:21 65° SSW visible
28 Aug11.623:25:40NE23:25:40NE22:53:50Wvisible
29 Aug 11.5 01:27:03 21° N 01:27:03 21° N 01:35:01 10° NNE visible
29 Aug 11.7 03:33:37 10° NNW 03:40:41 14° N 03:46:58 10° NNE visible
29 Aug 9.9 18:55:01 10° SSW 19:02:28 32° SE 19:08:46 21° E visible
29 Aug 9.7 21:02:03 10° WSW 21:10:15 65° WSW 21:10:15 65° WSW visible
29 Aug 11.8 23:42:16 10° NE 23:42:16 10° NE 23:11:45 - W visible
